Regional Weather Roundup
Issued by NWS

Home | Current Version | Previous Version | Graphics & Text | Print | Product List | Glossary On
Versions: 1 2 3 4 5 6 7 8 9 10 11 12 13 14 15 16 17 18 19 20 21 22 23 24 25 26 27 28
000
ASUS45 KTFX 191510
RWRMT
MONTANA REGIONAL WEATHER ROUNDUP
NATIONAL WEATHER SERVICE GREAT FALLS MT
900 AM MDT SAT AUG 19 2017

NOTE: "FAIR" INDICATES FEW OR NO CLOUDS BELOW 12000 FEET WITH NO
SIGNIFICANT WEATHER AND/OR OBSTRUCTIONS TO VISIBILITY.

MTZ001>007-043-191600-
WEST OF THE DIVIDE

CITY           SKY/WX    TMP DP  RH WIND       PRES   REMARKS
KALISPELL      SUNNY     67  44  43 S5        29.96S
MISSOULA       MOSUNNY   62  37  39 CALM      30.04R
BUTTE          CLOUDY    57  31  37 CALM      30.13S
MULLAN PASS    SUNNY     51  37  58 W9        30.13S
ANACONDA         N/A     66  34  30 CALM      30.10S
DEER LODGE       N/A     63  37  39 SE3       30.10S
EUREKA           N/A     61  39  44 MISG        N/A
HAMILTON         N/A     63  39  42 S3        30.05S
LIBBY            N/A     70  41  35 CALM      29.96R
RONAN            N/A     66  43  43 SW3       30.05S
$$

MTZ008-052>055-191600-
SOUTHWEST MONTANA

CITY           SKY/WX    TMP DP  RH WIND       PRES   REMARKS
BOZEMAN        MOSUNNY   62  39  42 CALM      30.06S
DILLON         CLOUDY    57  40  52 SW10      30.10R
W YELLOWSTONE  CLOUDY    48  36  61 CALM      30.22S
ENNIS          CLOUDY    63  37  39 S5        30.15S
THREE FORKS      N/A     54  41  61 CALM      30.04S
$$

MTZ009-010-012-014-046-048-049-054-191600-
EAST SLOPES AND CENTRAL MONTANA

CITY           SKY/WX    TMP DP  RH WIND       PRES   REMARKS
CUT BANK       PTSUNNY   52  41  66 NW10      30.06R
GREAT FALLS    SUNNY     58  45  62 N10       30.04R
MALMSTROM AFB  SUNNY     59  46  61 N9        30.04R
HELENA         SUNNY     73  31  21 S8        30.03S
AUGUSTA          N/A     55  42  63 N15       30.06R
BOWMANS CRNR     N/A     55  43  64 NE18      30.04R
CHOTEAU          N/A     55  41  58 N10       30.07S
FAIRFIELD        N/A     56  41  56 N8        30.06R
POWER            N/A     55  42  60 N8        30.04R
RAYNESFORD       N/A     59  43  54 NW10      30.04R
ULM              N/A     58  46  63 N6        30.06R
$$

MTZ011-013-016-021-045-047-050-051-191600-
NORTH CENTRAL MONTANA

CITY           SKY/WX    TMP DP  RH WIND       PRES   REMARKS
HAVRE          SUNNY     61  44  53 W8        29.98R
LEWISTOWN      SUNNY     67  33  28 NW7       30.01R
N BAR RANCH      N/A     70  28  21 NW15      30.02R
CHINOOK          N/A     63  43  48 NW9       29.96S
DENTON           N/A     58  45  62 NW15      29.96R
GEYSER           N/A     60  44  54 E7        30.01R
GRASS RANGE      N/A     68  31  25 NW14      29.94R
JUDITH GAP       N/A     70  30  22 N24G32    30.01R
WINIFRED         N/A     62  46  55 W12       29.98R
$$

MTZ017>020-022>027-061-062-191600-
NORTHEAST MONTANA

CITY           SKY/WX    TMP DP  RH WIND       PRES   REMARKS
GLASGOW        CLOUDY    65  47  52 NW21G30   29.83R
JORDAN           N/A     76  34  21 NW16G23   29.85R
SIDNEY         MOSUNNY   66  54  65 S8        29.75S
WOLF POINT     CLOUDY    69  45  41 W14       29.77R
MALTA          SUNNY     64  45  48 NW18G25   29.91R
PLENTYWOOD       N/A     70  48  46 CALM      29.73S
POPLAR           N/A     68  46  45 W5        29.76S
$$

MTZ028>42-056>058-191600-
SOUTHCENTRAL AND SOUTHEAST MONTANA

CITY           SKY/WX    TMP DP  RH WIND       PRES   REMARKS
BAKER          MOSUNNY   77  37  23 W15       29.85R
BILLINGS       CLOUDY    68  35  29 SW9       29.96R
LIVINGSTON     MOSUNNY   64  39  39 NW10      30.03S
MILES CITY     PTSUNNY   63  38  39 S6        29.86R
BIG TIMBER     SUNNY     66  32  28 W16       30.03S
HARLOWTON      PTSUNNY   74  29  18 MISG      29.99S
LAUREL           N/A     66  37  34 S1        29.97R
$$

REGIONAL REPORTS...DAKOTAS

CITY           SKY/WX    TMP DP  RH WIND       PRES   REMARKS
WILLISTON      SUNNY     70  53  54 S7        29.73F
MINOT          SUNNY     74  56  53 S13       29.73F
DICKINSON      SUNNY     70  53  54 SW10      29.78S
BEACH            N/A     75  36  23 W15       29.83R
CROSBY           N/A     73  52  46 S18       29.70F
TIOGA            N/A     70  57  64 SW12      29.75F
WATFORD CITY     N/A     72  50  46 SW7       29.74F
BISMARCK       SUNNY     71  61  70 SE8       29.81F
GRAND FORKS    SUNNY     74  61  63 SW10      29.82F
FARGO          SUNNY     69  61  75 S8        29.88S
BUFFALO SD       N/A     68  48  48 CALM      29.80S
RAPID CITY     SUNNY     75  53  46 SW3       29.88S
$$

REGIONAL REPORTS...WYOMING/IDAHO/WASHINGTON

CITY           SKY/WX    TMP DP  RH WIND       PRES   REMARKS
GILLETTE       SUNNY     77  35  21 W17       29.98R
SHERIDAN       CLOUDY    75  38  26 W3        29.99S HAZE
BUFFALO WY     PTSUNNY   79  27  14 NW16G25   30.04F HAZE
CODY           SUNNY     75  43  31 CALM      30.08R
YELLOWSTONE LA   N/A     52  46  80 CALM      30.30S
IDAHO FALLS    MOSUNNY   62  40  44 SW10      30.11R
SALMON         CLOUDY    54  43  66 CALM      30.09R
BOISE          SUNNY     65  37  35 CALM      30.04R
SPOKANE        PTSUNNY   57  46  66 S7        30.05R
$$

REGIONAL REPORTS...ALBERTA

CITY           SKY/WX    TMP DP  RH WIND       PRES   REMARKS
EDMONTON       SUNNY     54  41  62 W13G20    29.91S
CALGARY        PTSUNNY   54  36  50 SW8       30.03R
LETHBRIDGE     PTSUNNY   55  41  58 W7G18     30.04R
MEDICINE HAT   CLOUDY    59  43  55 W10       29.98R
$$

REGIONAL REPORTS...SASKATCHEWAN

CITY           SKY/WX    TMP DP  RH WIND       PRES   REMARKS
SWIFT CURRENT  SUNNY     59  45  58 NW24G30   29.84S
REGINA         MOSUNNY   66  50  55 W17G28    29.69R
SASKATOON      PTSUNNY   59  50  72 NW18      29.76R
$$




USA.gov is the U.S. government's official web portal to all federal, state and local government web resources and services.